• In Uzbekistan
  • List of Countries
  • For 7 days
  • Water Temperature
  • Satellite Maps
  • Weather Map
  • Weather Widgets
  • user-avatar
    Login

    Hourly Weather Bergneustadt

    Today, 19 November, Sunday

    Time Temperature Precipitation Wind Pressure Humidity
    00:00 +3°C° 0.5 mm 3 mps 735 mmHg 89%
    01:00 +4°C° 0 mm 2 mps 734 mmHg 90%
    02:00 +4°C° 0.2 mm 2 mps 734 mmHg 89%
    03:00 +2°C° 0.2 mm 3 mps 734 mmHg 89%
    04:00 +2°C° 0.2 mm 3 mps 734 mmHg 88%
    05:00 +2°C° 0 mm 3 mps 734 mmHg 88%
    06:00 +2°C° 0 mm 3 mps 734 mmHg 87%
    07:00 +1°C° 0 mm 3 mps 734 mmHg 86%
    08:00 +1°C° 0.1 mm 4 mps 735 mmHg 84%
    09:00 +3°C° 0.1 mm 4 mps 735 mmHg 82%
    10:00 +2°C° 0.1 mm 5 mps 735 mmHg 79%
    11:00 +3°C° 0.1 mm 5 mps 736 mmHg 77%
    12:00 +5°C° 0.1 mm 5 mps 736 mmHg 74%
    13:00 +5°C° 0.1 mm 5 mps 736 mmHg 71%
    14:00 +5°C° 0.2 mm 5 mps 736 mmHg 73%
    15:00 +5°C° 0.2 mm 5 mps 736 mmHg 74%
    16:00 +4°C° 0.2 mm 4 mps 736 mmHg 76%
    17:00 +4°C° 0.1 mm 4 mps 737 mmHg 78%
    18:00 +3°C° 0.1 mm 4 mps 737 mmHg 81%
    19:00 +3°C° 0.1 mm 4 mps 737 mmHg 83%
    20:00 +3°C° 0.1 mm 4 mps 738 mmHg 84%
    21:00 +3°C° 0.1 mm 4 mps 738 mmHg 85%
    22:00 +3°C° 0.1 mm 4 mps 738 mmHg 86%
    23:00 +1°C° 0.1 mm 4 mps 739 mmHg 86%

    Tomorrow, 20 November, Monday

    Time Temperature Precipitation Wind Pressure Humidity
    00:00 +1°C° 0.1 mm 4 mps 739 mmHg 87%
    01:00 +1°C° 0.1 mm 4 mps 739 mmHg 88%
    02:00 +2°C° 0 mm 3 mps 739 mmHg 88%
    03:00 +2°C° 0 mm 3 mps 739 mmHg 88%
    04:00 +2°C° 0 mm 3 mps 739 mmHg 88%
    05:00 +2°C° 0 mm 3 mps 739 mmHg 88%
    06:00 +2°C° 0 mm 3 mps 739 mmHg 87%
    07:00 +1°C° 0 mm 3 mps 738 mmHg 87%
    08:00 +2°C° 0.3 mm 3 mps 738 mmHg 84%
    09:00 +1°C° 0.3 mm 4 mps 738 mmHg 82%
    10:00 +1°C° 0.3 mm 4 mps 738 mmHg 80%
    11:00 +1°C° 0.3 mm 4 mps 737 mmHg 79%
    12:00 +3°C° 0.3 mm 4 mps 736 mmHg 79%
    13:00 +2°C° 0.3 mm 5 mps 736 mmHg 78%
    14:00 +3°C° 0.4 mm 5 mps 735 mmHg 81%
    15:00 +3°C° 0.4 mm 5 mps 734 mmHg 84%
    16:00 +5°C° 0.4 mm 5 mps 733 mmHg 86%
    17:00 +5°C° 0.3 mm 6 mps 733 mmHg 87%
    18:00 +5°C° 0.3 mm 6 mps 733 mmHg 87%
    19:00 +5°C° 0.3 mm 6 mps 732 mmHg 88%
    20:00 +5°C° 0.8 mm 6 mps 732 mmHg 89%
    21:00 +5°C° 0.8 mm 6 mps 732 mmHg 89%
    22:00 +5°C° 0.8 mm 6 mps 732 mmHg 90%
    23:00 +7°C° 0.5 mm 6 mps 732 mmHg 91%

    Day after tomorrow, 21 November, Tuesday

    Time Temperature Precipitation Wind Pressure Humidity
    00:00 +7°C° 0.5 mm 5 mps 732 mmHg 91%
    01:00 +7°C° 0.5 mm 5 mps 732 mmHg 92%
    02:00 +8°C° 0.3 mm 5 mps 732 mmHg 92%
    03:00 +8°C° 0.3 mm 5 mps 732 mmHg 93%
    04:00 +8°C° 0.3 mm 5 mps 732 mmHg 93%
    05:00 +8°C° 0.2 mm 5 mps 732 mmHg 93%
    06:00 +8°C° 0.2 mm 4 mps 732 mmHg 93%
    07:00 +8°C° 0.2 mm 4 mps 732 mmHg 94%
    08:00 +8°C° 0.1 mm 4 mps 733 mmHg 94%
    09:00 +8°C° 0.1 mm 4 mps 733 mmHg 93%
    10:00 +9°C° 0.1 mm 3 mps 733 mmHg 93%
    11:00 +10°C° 0.9 mm 4 mps 733 mmHg 93%
    12:00 +10°C° 0.9 mm 4 mps 733 mmHg 93%
    13:00 +10°C° 0.9 mm 4 mps 733 mmHg 93%
    14:00 +8°C° 0.5 mm 4 mps 733 mmHg 92%
    15:00 +8°C° 0.5 mm 4 mps 733 mmHg 91%
    16:00 +8°C° 0.5 mm 4 mps 733 mmHg 89%
    17:00 +7°C° 0 mm 4 mps 733 mmHg 89%
    18:00 +7°C° 0 mm 4 mps 733 mmHg 89%
    19:00 +7°C° 0 mm 3 mps 733 mmHg 89%
    20:00 +7°C° 0 mm 3 mps 733 mmHg 90%
    21:00 +5°C° 0 mm 3 mps 733 mmHg 90%
    22:00 +5°C° 0 mm 3 mps 733 mmHg 90%
    23:00 +5°C° 0 mm 3 mps 733 mmHg 90%

    22 November, Wednesday

    Time Temperature Precipitation Wind Pressure Humidity
    00:00 +5°C° 0 mm 3 mps 732 mmHg 90%
    01:00 +5°C° 0 mm 3 mps 732 mmHg 90%
    02:00 +5°C° 0 mm 4 mps 732 mmHg 90%
    03:00 +6°C° 0 mm 4 mps 731 mmHg 90%
    04:00 +6°C° 0 mm 4 mps 731 mmHg 90%
    05:00 +6°C° 0 mm 4 mps 731 mmHg 90%
    06:00 +5°C° 0 mm 4 mps 731 mmHg 90%
    07:00 +5°C° 0 mm 4 mps 731 mmHg 89%
    08:00 +6°C° 0 mm 4 mps 731 mmHg 86%
    09:00 +6°C° 0 mm 4 mps 731 mmHg 82%
    10:00 +7°C° 0 mm 4 mps 731 mmHg 79%
    11:00 +8°C° 0 mm 5 mps 731 mmHg 73%
    12:00 +9°C° 0 mm 5 mps 731 mmHg 68%
    13:00 +10°C° 0 mm 5 mps 731 mmHg 63%
    14:00 +11°C° 0 mm 4 mps 731 mmHg 66%
    15:00 +10°C° 0 mm 4 mps 731 mmHg 68%
    16:00 +10°C° 0 mm 3 mps 731 mmHg 70%
    17:00 +9°C° 0 mm 3 mps 731 mmHg 72%
    18:00 +8°C° 0 mm 3 mps 731 mmHg 74%
    19:00 +7°C° 0 mm 3 mps 731 mmHg 76%
    20:00 +7°C° 0 mm 3 mps 731 mmHg 76%
    21:00 +7°C° 0 mm 3 mps 731 mmHg 76%
    22:00 +5°C° 0 mm 3 mps 731 mmHg 76%
    23:00 +5°C° 0 mm 3 mps 731 mmHg 75%

    23 November, Thursday

    Time Temperature Precipitation Wind Pressure Humidity
    00:00 +5°C° 0 mm 3 mps 730 mmHg 75%
    01:00 +5°C° 0 mm 3 mps 730 mmHg 75%
    02:00 +5°C° 0 mm 3 mps 730 mmHg 74%
    03:00 +4°C° 0 mm 4 mps 730 mmHg 74%
    04:00 +4°C° 0 mm 4 mps 729 mmHg 74%
    05:00 +5°C° 0 mm 4 mps 729 mmHg 75%
    06:00 +5°C° 0 mm 4 mps 729 mmHg 76%
    07:00 +5°C° 0 mm 5 mps 729 mmHg 77%
    08:00 +6°C° 0 mm 5 mps 729 mmHg 75%
    09:00 +7°C° 0 mm 6 mps 730 mmHg 74%
    10:00 +9°C° 0 mm 6 mps 730 mmHg 72%
    11:00 +10°C° 0 mm 6 mps 730 mmHg 68%
    12:00 +11°C° 0 mm 6 mps 730 mmHg 65%
    13:00 +13°C° 0 mm 6 mps 731 mmHg 62%
    14:00 +13°C° 0 mm 6 mps 731 mmHg 64%
    15:00 +12°C° 0 mm 5 mps 731 mmHg 67%
    16:00 +12°C° 0 mm 5 mps 731 mmHg 70%
    17:00 +10°C° 0 mm 5 mps 732 mmHg 71%
    18:00 +10°C° 0 mm 5 mps 732 mmHg 73%
    19:00 +9°C° 0 mm 5 mps 733 mmHg 75%
    20:00 +10°C° 0 mm 4 mps 733 mmHg 77%
    21:00 +10°C° 0 mm 4 mps 733 mmHg 78%
    22:00 +10°C° 0 mm 4 mps 734 mmHg 80%
    23:00 +10°C° 0 mm 4 mps 734 mmHg 81%

    24 November, Friday

    Time Temperature Precipitation Wind Pressure Humidity
    00:00 +8°C° 0 mm 4 mps 734 mmHg 81%
    01:00 +8°C° 0 mm 4 mps 734 mmHg 82%
    02:00 +8°C° 0 mm 4 mps 734 mmHg 83%
    03:00 +9°C° 0 mm 3 mps 734 mmHg 83%
    04:00 +9°C° 0 mm 3 mps 733 mmHg 84%
    05:00 +8°C° 0 mm 3 mps 733 mmHg 84%
    06:00 +8°C° 0 mm 3 mps 733 mmHg 84%
    07:00 +7°C° 0 mm 4 mps 733 mmHg 85%
    08:00 +8°C° 0 mm 4 mps 733 mmHg 81%
    09:00 +8°C° 0 mm 4 mps 733 mmHg 78%
    10:00 +10°C° 0 mm 4 mps 733 mmHg 75%
    11:00 +9°C° 0 mm 5 mps 733 mmHg 73%
    12:00 +10°C° 0 mm 5 mps 733 mmHg 70%
    13:00 +10°C° 0 mm 5 mps 732 mmHg 68%
    14:00 +10°C° 0 mm 5 mps 732 mmHg 67%
    15:00 +10°C° 0 mm 5 mps 731 mmHg 66%
    16:00 +10°C° 0 mm 5 mps 731 mmHg 66%
    17:00 +10°C° 0 mm 5 mps 731 mmHg 68%
    18:00 +9°C° 0 mm 5 mps 731 mmHg 69%
    19:00 +9°C° 0 mm 5 mps 731 mmHg 71%
    20:00 +10°C° 0 mm 4 mps 731 mmHg 71%
    21:00 +10°C° 0 mm 4 mps 730 mmHg 72%
    22:00 +10°C° 0 mm 4 mps 730 mmHg 72%
    23:00 +10°C° 0 mm 4 mps 730 mmHg 72%
    Show more